Orbital Elements at Epoch 2459000.5 (2020-May-31.0) TDB
Reference: JPL 19 (heliocentric ecliptic J2000)
Element | Value | Uncertainty (1-sigma) | Units |
e | .00918370006014598 | 4.7715e-08 | |
a | 2.758985730411872 | 1.6672e-08 | au |
q | 2.733648032993547 | 1.2457e-07 | au |
i | 4.47645857098565 | 3.9866e-06 | deg |
node | 241.1019040997672 | 5.3903e-05 | deg |
peri | 282.5446673449395 | 0.00022061 | deg |
M | 127.6272370455049 | 0.00021448 | deg |
tp | 2458407.078229448117 (2018-Oct-15.57822945) | 0.00099692 | TDB |
period | 1673.873401509965 4.58 | 1.5172e-05 4.154e-08 | d yr |
n | .2150700283995503 | 1.9494e-09 | deg/d |
Q | 2.784323427830198 | 1.6825e-08 | au |
|
| | Orbit Determination Parameters
Additional Information
|